Date String (YYYY-MM-DD hh:mm:ss) UTC,Instrument flags,Ambient pressure (hPa),Sample flow (lpm),Bypass flow (lpm),Sample temperature (°C),Ambient temperature (°C),ASC tube jacket temperature (°C),LED temperature (°C),Box temperature (°C),Sample RH (%),Span deviation,Mass concentration (μg/m³),Mass concentration (μg/m³),Mass concentration (μg/m³)
DateTimeUTC,F1_M11,P_M11,Q1_M11,Q2_M11,T1_M11,T2_M11,T3_M11,T4_M11,T5_M11,U1_M11,ZSPAN_M11,X2_M11,X0_M11,X1_M11
2022-02-08 05:00:00,,0827.0,5.00,0.00,24.8,23.9,00.0,34.0,26.5,06.7,0000.0,0000.51,0001.95,0000.34
2022-02-08 05:01:00,,0827.0,5.01,0.00,24.8,23.9,00.0,34.0,26.5,06.7,0000.0,0000.48,0001.87,0000.34
2022-02-08 05:02:00,,0826.9,4.99,0.00,24.7,23.9,00.0,34.0,26.4,06.7,0000.0,0000.46,0001.45,0000.34
2022-02-08 05:03:00,,0826.9,5.02,0.00,24.7,23.8,00.0,34.0,26.4,06.7,0000.0,0000.46,0000.70,0000.33
2022-02-08 05:04:00,,0826.9,4.99,0.00,24.7,23.8,00.0,33.9,26.4,06.6,0000.0,0000.45,0000.69,0000.33
2022-02-08 05:05:00,,0826.9,4.99,0.00,24.7,23.8,00.0,33.9,26.4,06.6,0000.0,0000.47,0000.74,0000.33
2022-02-08 05:06:00,,0826.9,5.02,0.00,24.7,23.8,00.0,33.9,26.3,06.7,0000.0,0000.47,0000.77,0000.33
2022-02-08 05:07:00,,0827.0,4.99,0.00,24.6,23.8,00.0,33.9,26.3,06.8,0000.0,0000.47,0000.79,0000.32
2022-02-08 05:08:00,,0827.0,5.01,0.00,24.6,23.8,00.0,33.8,26.4,06.8,0000.0,0000.45,0000.75,0000.31
2022-02-08 05:09:00,,0826.9,5.00,0.00,24.7,23.9,00.0,33.8,26.5,06.8,0000.0,0000.45,0000.75,0000.31
2022-02-08 05:10:00,,0826.9,5.00,0.00,24.7,23.9,00.0,33.8,26.5,06.9,0000.0,0000.46,0000.77,0000.32
2022-02-08 05:11:00,,0826.9,5.00,0.00,24.7,24.0,00.0,33.8,26.5,07.0,0000.0,0000.46,0000.75,0000.32
2022-02-08 05:12:00,,0826.9,5.01,0.00,24.7,24.0,00.0,33.8,26.6,07.1,0000.0,0000.48,0000.81,0000.32
2022-02-08 05:13:00,,0826.9,4.99,0.00,24.7,24.0,00.0,33.8,26.5,06.8,0000.0,0000.46,0000.76,0000.31
2022-02-08 05:14:00,,0826.9,4.99,0.00,24.7,24.0,00.0,33.8,26.5,06.9,0000.0,0000.44,0000.72,0000.31
2022-02-08 05:15:00,,0827.0,5.03,0.00,24.7,24.0,00.0,33.8,26.5,06.9,0000.0,0000.43,0000.68,0000.31
2022-02-08 05:16:00,,0827.0,4.99,0.00,24.7,24.0,00.0,33.8,26.5,06.8,0000.0,0000.41,0000.62,0000.31
2022-02-08 05:17:00,,0827.0,4.99,0.00,24.7,24.0,00.0,33.8,26.5,06.8,0000.0,0000.39,0000.58,0000.30
2022-02-08 05:18:00,,0827.0,5.02,0.00,24.7,24.0,00.0,33.8,26.5,06.9,0000.0,0000.39,0000.57,0000.30
2022-02-08 05:19:00,,0827.0,5.00,0.00,24.7,24.0,00.0,33.8,26.5,07.4,0000.0,0000.39,0000.58,0000.31
2022-02-08 05:20:00,,0827.0,4.99,0.00,24.8,24.1,00.0,33.8,26.6,07.3,0000.0,0000.41,0000.63,0000.31
2022-02-08 05:21:00,,0827.0,5.02,0.00,24.8,24.1,00.0,33.8,26.6,07.2,0000.0,0000.41,0000.64,0000.30
2022-02-08 05:22:00,,0826.9,5.00,0.00,24.8,24.2,00.0,33.8,26.6,06.8,0000.0,0000.42,0000.64,0000.30
2022-02-08 05:23:00,,0826.9,4.98,0.00,24.8,24.2,00.0,33.8,26.7,06.8,0000.0,0000.40,0000.59,0000.30
2022-02-08 05:24:00,,0826.9,5.01,0.00,24.8,24.2,00.0,33.8,26.7,06.8,0000.0,0000.41,0000.60,0000.31
2022-02-08 05:25:00,,0826.9,5.00,0.00,24.9,24.2,00.0,33.8,26.7,06.8,0000.0,0000.43,0000.64,0000.32
2022-02-08 05:26:00,,0826.9,5.01,0.00,24.9,24.3,00.0,33.8,26.7,06.6,0000.0,0000.46,0000.70,0000.32
2022-02-08 05:27:00,,0826.9,5.01,0.00,24.9,24.3,00.0,33.8,26.7,06.6,0000.0,0000.49,0000.76,0000.33
2022-02-08 05:28:00,,0826.9,4.98,0.00,24.9,24.3,00.0,33.8,26.7,06.6,0000.0,0000.50,0000.81,0000.33
2022-02-08 05:29:00,,0826.9,5.00,0.00,24.9,24.3,00.0,33.8,26.8,06.5,0000.0,0000.54,0001.18,0000.33
2022-02-08 05:30:00,,0826.9,5.00,0.00,24.9,24.3,00.0,33.8,26.8,06.5,0000.0,0000.58,0001.28,0000.34
2022-02-08 05:31:00,,0826.9,4.99,0.00,25.0,24.3,00.0,33.9,26.8,06.5,0000.0,0000.60,0002.02,0000.35
2022-02-08 05:32:00,,0826.9,5.01,0.00,25.0,24.3,00.0,33.9,26.8,06.7,0000.0,0000.60,0002.02,0000.36
2022-02-08 05:33:00,,0826.8,4.99,0.00,25.0,24.3,00.0,33.9,26.8,06.8,0000.0,0000.61,0002.04,0000.37
2022-02-08 05:34:00,,0826.9,5.00,0.00,25.0,24.3,00.0,33.9,26.8,07.0,0000.0,0000.62,0002.09,0000.37
2022-02-08 05:35:00,,0826.9,5.01,0.00,25.0,24.4,00.0,33.9,26.8,07.0,0000.0,0000.61,0002.07,0000.36
2022-02-08 05:36:00,,0826.8,4.99,0.00,25.0,24.4,00.0,33.9,26.8,07.0,0000.0,0000.62,0002.59,0000.36
2022-02-08 05:37:00,,0826.7,5.00,0.00,25.0,24.4,00.0,33.9,26.9,06.9,0000.0,0000.62,0002.77,0000.35
2022-02-08 05:38:00,,0826.8,5.01,0.00,25.0,24.4,00.0,33.9,26.9,06.8,0000.0,0000.65,0002.83,0000.36
2022-02-08 05:39:00,,0826.8,4.99,0.00,25.0,24.4,00.0,33.9,26.9,06.8,0000.0,0000.65,0002.80,0000.36
2022-02-08 05:40:00,,0826.7,5.00,0.00,25.0,24.4,00.0,33.9,26.9,06.8,0000.0,0000.63,0002.50,0000.37
2022-02-08 05:41:00,,0826.7,5.01,0.00,25.1,24.4,00.0,33.9,26.9,06.8,0000.0,0000.60,0002.41,0000.37
2022-02-08 05:42:00,,0826.7,4.99,0.00,25.1,24.4,00.0,34.0,26.9,06.8,0000.0,0000.56,0001.64,0000.36
2022-02-08 05:43:00,,0826.7,5.02,0.00,25.1,24.4,00.0,34.0,26.9,06.9,0000.0,0000.55,0001.63,0000.36
2022-02-08 05:44:00,,0826.7,5.00,0.00,25.1,24.4,00.0,34.0,26.9,06.8,0000.0,0000.54,0001.62,0000.35
2022-02-08 05:45:00,,0826.7,4.99,0.00,25.1,24.4,00.0,34.0,27.0,06.9,0000.0,0000.55,0001.64,0000.36
2022-02-08 05:46:00,,0826.7,5.01,0.00,25.1,24.4,00.0,34.0,27.0,07.1,0000.0,0000.58,0001.72,0000.36
2022-02-08 05:47:00,,0826.7,4.99,0.00,25.1,24.4,00.0,34.0,27.0,07.1,0000.0,0000.56,0002.12,0000.36
2022-02-08 05:48:00,,0826.6,5.01,0.00,25.1,24.4,00.0,34.0,27.0,07.0,0000.0,0000.54,0001.97,0000.35
2022-02-08 05:49:00,,0826.6,5.01,0.00,25.1,24.5,00.0,34.0,27.0,06.8,0000.0,0000.49,0001.85,0000.35
2022-02-08 05:50:00,,0826.6,4.99,0.00,25.1,24.4,00.0,34.0,26.9,06.6,0000.0,0000.51,0001.88,0000.36
2022-02-08 05:51:00,,0826.6,5.01,0.00,25.1,24.4,00.0,34.0,26.9,06.7,0000.0,0000.50,0001.86,0000.35
2022-02-08 05:52:00,,0826.5,4.99,0.00,25.1,24.4,00.0,34.0,26.9,06.7,0000.0,0000.52,0001.96,0000.35
2022-02-08 05:53:00,,0826.5,4.99,0.00,25.1,24.4,00.0,34.0,26.9,06.6,0000.0,0000.52,0001.98,0000.35
2022-02-08 05:54:00,,0826.6,5.01,0.00,25.1,24.4,00.0,34.0,26.9,06.7,0000.0,0000.51,0001.96,0000.34
2022-02-08 05:55:00,,0826.6,5.01,0.00,25.1,24.4,00.0,34.0,26.9,06.7,0000.0,0000.52,0001.94,0000.34
2022-02-08 05:56:00,,0826.6,4.99,0.00,25.1,24.4,00.0,34.0,26.9,06.7,0000.0,0000.51,0001.89,0000.35
2022-02-08 05:57:00,,0826.6,4.99,0.00,25.1,24.4,00.0,34.0,26.9,06.7,0000.0,0000.48,0001.78,0000.35
2022-02-08 05:58:00,,0826.5,5.01,0.00,25.1,24.4,00.0,34.0,26.9,06.7,0000.0,0000.47,0000.82,0000.35
2022-02-08 05:59:00,,0826.5,5.01,0.00,25.1,24.4,00.0,34.0,26.9,06.7,0000.0,0000.50,0000.98,0000.35
